Weather Roundup
Issued by NWS Chicago, IL

Home | Current Version | Previous Version | Graphics & Text | Print | Product List | Glossary On
Versions: 1 2 3 4 5 6 7 8 9 10 11 12 13 14 15 16 17 18 19 20 21 22 23 24 25 26 27 28 29 30 31 32 33 34 35 36 37 38 39 40 41 42 43 44 45 46 47 48 49 50
202
NZUS59 KLOT 252308
HRRLOT

CHICAGO AREA WEATHER ROUNDUP
NATIONAL WEATHER SERVICE CHICAGO/ROMEOVILLE IL
600 PM CDT MON JUL 25 2016

NOTE: "FAIR" INDICATES FEW OR NO CLOUDS BELOW 12,000 FEET WITH NO
SIGNIFICANT WEATHER AND/OR OBSTRUCTIONS TO VISIBILITY.

* THESE STATIONS ARE NOT UNDER NWS QUALITY CONTROL. THEY ALSO MAY NOT
  REPORT WEATHER SUCH AS PRECIPITATION OR FOG.

ILZ005-006-012>014-019>023-260000-
NORTHEAST ILLINOIS

CITY           SKY/WX    TMP DP  RH WIND       PRES   REMARKS
OHARE          CLOUDY    85  64  49 E10       29.97S HX  86
MIDWAY         PTSUNNY   84  62  47 E10       29.97F HX  85
AURORA         MOSUNNY   84  69  60 W7        30.00S HX  88
LANSING*       MOSUNNY   82  62  50 E7        29.99S HX  83
JOLIET*        CLOUDY    86  70  58 W8        29.98F HX  90
WAUKEGAN       SUNNY     81  63  54 SE8       29.98S HX  82
DUPAGE AIRPORT CLOUDY    86  63  45 NW5       29.98F HX  87
WHEELING       SUNNY     84  63  49 E5        29.99R HX  85
KANKAKEE*      CLOUDY    83  71  66 W3        29.99F HX  87
MORRIS*        CLOUDY    83  69  62 CALM      29.98S HX  86
LEWIS AIRPORT* CLOUDY    84  65  53 NW5       29.99S HX  86
NORTHERLY ISL    N/A     77  69  76 SE1         N/A
$$

WIZ051-052-058>065-066-070>072-260000-
SOUTHEAST WISCONSIN

CITY           SKY/WX    TMP DP  RH WIND       PRES   REMARKS
MILWAUKEE      PTSUNNY   80  63  55 E6        29.98S HX  81
KENOSHA*       MOSUNNY   84  65  52 SE7       29.99S HX  86
RACINE*        SUNNY     83  62  49 SE7       30.00S HX  84
BURLINGTON     SUNNY     83  63  49 NW6       29.99S HX  84
WAUKESHA       MOSUNNY   81  61  50 NW14      30.00F HX  81
$$

INZ001>003-010>013-019-020-260000-
NORTHWEST INDIANA

CITY           SKY/WX    TMP DP  RH WIND       PRES   REMARKS
GARY*          PTSUNNY   84  64  51 NE9       29.99S HX  86
MICHIGAN CITY* NOT AVBL
RENSSELAER*    NOT AVBL
VALPARAISO     MOSUNNY   81  64  56 NE6       30.00S HX  82
$$

LMZ740>746-260000-
SOUTHERN LAKE MICHIGAN

STATION/POSITION TIME  SKY/WX   TEMP WIND        PRES    VSBY
                                AIR  DIR/SP/G
                 (UTC)          (F)  (DEG/KT/KT) (MB)    (MI)
HARRISON CRIB    2200            78  110/  9/ 10   N/A
BURNHAM HARBOR   2300            77  130/  2/  5   N/A
CALUMET HARBOR   2218            77   90/  7/  9   N/A
BURNS HARBOR     2200            79   70/  7/  9 1015.9S
MICHIGAN CITY    2200            76   20/  5/  5   N/A
$$

ABBREVIATIONS USED IN REMARKS
   TC - TEMPERATURE IN CELSIUS
  WCI - WIND CHILL INDEX
   HX - HEAT INDEX
  VSB - VISIBILITY
$$




USA.gov is the U.S. government's official web portal to all federal, state and local government web resources and services.